Regional Weather Roundup
Issued by NWS Charleston, SC

Current Version | Previous Version | Graphics & Text | Print | Product List | Glossary On
Versions: 1 2 3 4 5 6 7 8 9 10 11 12 13 14 15 16 17 18 19 20 21 22 23 24 25 26 27 28 29 30 31 32 33 34 35 36 37 38 39 40 41 42 43 44 45 46 47 48 49 50
000
ASUS42 KCHS 021427
RWRCHS

REGIONAL WEATHER ROUNDUP
NATIONAL WEATHER SERVICE CHARLESTON SC
1000 AM EDT SUN AUG 02 2015

NOTE: "FAIR" INDICATES FEW OR NO CLOUDS BELOW 12,000 FEET WITH NO
SIGNIFICANT WEATHER AND/OR OBSTRUCTIONS TO VISIBILITY.

NOT ALL STATIONS ARE QUALITY CONTROLLED BY THE NATIONAL
WEATHER SERVICE. USE DATA WITH CAUTION...ESPECIALLY
DEWPOINT OBSERVATIONS.

SCZ027-030-031-034>040-042>050-021500-
...SOUTHEAST SOUTH CAROLINA...

CITY           SKY/WX    TMP DP  RH WIND       PRES   REMARKS
N CHARLESTON   PTSUNNY   83  75  77 VRB5      29.94S HX  90
WATERFRONT PRK   N/A     82  77  84 S7        29.91R HX  90
MOUNT PLEASANT FAIR      84  77  79 CALM      29.94S HX  94
JOHNS ISLAND   PTSUNNY   84  77  79 CALM      29.94R HX  94
PINOPOLIS      NOT AVBL
MONCKS CORNER  FAIR      84  73  70 CALM      29.95S HX  91
SUMMERVILLE    PTSUNNY   82  77  83 CALM      29.95S HX  91
BEAUFORT MCAS  PTSUNNY   82  75  79 CALM      29.93S
BEAUFORT ARPT  FAIR      81  77  89 CALM      29.93S
HILTON HEAD IS MOSUNNY   81  75  83 CALM      29.95R
WALTERBORO     MOSUNNY   82  77  83 E3        29.95S HX  91
ALLENDALE      CLOUDY    79  75  89 CALM      29.94S

...SOUTHERN MIDLANDS AND PEE DEE...

CITY           SKY/WX    TMP DP  RH WIND       PRES   REMARKS
GEORGETOWN     NOT AVBL
KINGSTREE      NOT AVBL
ORANGEBURG     MOSUNNY   83  74  74 VRB3      29.95F
BARNWELL       CLOUDY    82  75  78 E7        29.95F
AIKEN          CLOUDY    77  72  83 E3        29.99F
MANNING        RAIN      82  70  65 NE3       29.95S
COLUMBIA       MOSUNNY   85  72  65 SE7       29.95R HX  91
SUMTER         SUNNY     85  72  66 E6        29.93S HX  90
FLORENCE       SUNNY     83  70  64 E6        29.95S
MYRTLE BEACH   SUNNY     84  72  65 CALM      29.97S
N MYRTLE BEACH SUNNY     83  74  74 CALM      29.95S

$$

GAZ063-065-086>088-099>101-113>116-118-119-134>141-150-021500-
...SOUTHEAST GEORGIA...

CITY           SKY/WX    TMP DP  RH WIND       PRES   REMARKS
SAVANNAH ARPT  CLOUDY    81  73  78 CALM      29.93S
HUNTER AAF     CLOUDY    80  76  89 W2        29.90S
FORT STEWART   PTSUNNY   90  73  58 SE6       29.85S HX  98
STATESBORO     CLOUDY    78  78 100 E3        29.93F
SYLVANIA       CLOUDY    78  77  98 E3        29.95S
CLAXTON        NOT AVBL

...CSRA...CENTRAL AND FAR SOUTHEAST GEORGIA...

CITY           SKY/WX    TMP DP  RH WIND       PRES   REMARKS
THOMSON        CLOUDY    82  77  85 E3        29.99S
AUGUSTA-BUSH   PTSUNNY   81  75  82 CALM      29.93F
AUGUSTA-DANIEL CLOUDY    80  74  81 CALM      29.96S HAZE
SWAINSBORO     CLOUDY   N/A N/A N/A E6        29.95S
VIDALIA        CLOUDY    79  73  83 E5        29.93S
EASTMAN        CLOUDY    81  79  94 E5        29.94S HX  91
HAZLEHURST     CLOUDY    79  78  97 E5        29.92S
ALMA           CLOUDY    77  73  87 E6        29.92R
WAYCROSS       CLOUDY    80  76  89 E3        29.91F
JESUP          PTSUNNY   82  73  74 CALM      29.92F
BAXLEY         CLOUDY    77  73  88 E3        29.92S
BRUNSWICK      CLOUDY    79  73  83 CALM      29.93S
SAINT SIMONS   CLOUDY    80  74  81 S7        29.91F

$$

SCZ027-028-034-036>038-045-046-048>050-GAZ119-141-021500-
...LAKE AND SUPPLEMENTAL COASTAL OBSERVATIONS...

STATION/POSITION TIME  TEMP    WIND        PRES    WAVE   SWELL
                       AIR SEA DIR/SP/G            HT/PER HT/PER/DIR
                 (UTC) (F)     (DEG/KT/KT) (MB)    (FT/S) (FT/S/D)
UPR LAKE MARION  NOT AVBL
WINYAH BAY       1300   80     330/  4     1013.0S
LAKE MURRAY      1300   79     100/  2/  5 1013.9R
ACE BASIN NERRS  NOT AVBL
FORT PULASKI     1400   77 86  140/  8/ 13 1013.9R
SAPELO ISLAND    1400   79     200/  5     1013.0S

$$

ANZ835-935-AMZ111-154-330-350-352-354-370-450-454-472-021500-
...C-MAN AND BUOY OBSERVATIONS...

STATION/POSITION TIME  TEMP    WIND        PRES    WAVE   SWELL
                       AIR SEA DIR/SP/G            HT/PER HT/PER/DIR
                 (UTC) (F)     (DEG/KT/KT) (MB)    (FT/S) (FT/S/D)
BUOY 41004       1350   78 84  260/ 10/ 12 1013.6R   4/ 7   3/ 7
BUOY 41008       1350   80 82  190/ 10/ 14 1013.2F   4/ 6   3/150/ 6
FOLLY BEACH CMAN 1400   83     190/  5/  7 1013.9R
CAPERS NEARSHORE 1308   82     100/  2/  6 1013.9R
FRIPP NEARSHORE  1300   82     200/  6/  8 1013.1R


STATION/POSITION TIME  TEMP    WIND        PRES    WAVE   SWELL
                       AIR SEA DIR/SP/G            HT/PER HT/PER/DIR
                 (UTC) (F)     (DEG/KT/KT) (MB)    (FT/S) (FT/S/D)
5E ST. MARYS GA  1321      83                N/A     4/ 5
FRYING PAN BUOY  1350   82 82  280/  4/  6 1014.7R   4/ 8   5/160/ 8
BUOY 41025       1350   81 85  310/  6/  8 1013.7F   3/ 7   3/150/ 7
CAPE LOOKOUT NC  1400   84     290/  3/  4 1013.5R
BUOY 41002       1350   83 81  210/ 16/ 19 1015.7F   7/ 8   3/260/ 8
BUOY 41010       1320   82 83  180/ 14/ 16 1015.7R
ST AUGUSTINE FL  1400   79 80  200/ 11/ 13 1014.0F


$$



USA.gov is the U.S. government's official web portal to all federal, state and local government web resources and services.